User: anonymous   Login
Location: Unspecified
(0.0000°N, 0.0000°E)
Time: 23:56:39
(UTC+02:00)
Language:

ARIANE 5 R/B - Orbit

View from above orbital plane
View from above orbital plane
View from above satellite
View from above satellite

Ground track
Ground track

The orbit data is extracted from the following two-line orbital elements,

1 29646U 06054D   15184.19253772  .00002658  00000-0  71288-3 0  9997
2 29646 002.8669 300.5848 7134434 013.1433 349.7562 02.46862330 73874
Epoch (UTC): 03 July 2015 04:37:15
Eccentricity: 0.7134434
inclination: 2.8669°
perigee height: 249 km
apogee height: 33246 km
right ascension of ascending node: 300.5848°
argument of perigee: 13.1433°
revolutions per day: 2.46862330
mean anomaly at epoch: 349.7562°
orbit number at epoch: 7387

The dashed part of the orbit path shows where the satellite is in the earth's shadow,  

DLR